Vorticity
6 8 7 5 4 4 5 7 3 7 11 9 4 7 7 6 8 9 9 7 8 7 8 8 8 9 9 9 9 7 6 6 7 10 5 6 3 4 3 4 5 6 8 7 7 7 8
3 6 7 7 5 5 8 5 -3 3 8 5 5 6 7 9 8 7 9 9 8 11 8 6 7 9 9 10 11 11 10 10 9 8 6 7 6 7 8 7 7 7 6 6 7 9 9
0 5 6 7 5 8 1 6 9 10 -3 9 2 5 7 8 5 9 7 6 7 8 11 9 8 9 8 8 9 9 9 9 6 7 9 8 5 7 7 6 7 7 7 6 5 4 4
-0 4 6 6 6 5 2 7 5 4 11 2 9 2 6 8 5 6 5 9 10 9 8 7 8 7 7 6 6 5 7 10 10 10 4 5 5 5 5 5 6 6 6 7 6 7 8
2 4 6 6 7 6 5 8 10 5 4 11 8 11 2 7 7 5 4 6 8 7 6 8 9 8 7 6 9 10 7 9 9 4 5 6 6 6 8 7 7 6 3 5 9 7 5
2 0 9 6 5 4 3 7 -1 11 2 6 7 9 9 4 7 5 7 2 7 3 5 1 5 6 9 9 6 13 12 3 6 8 6 7 8 7 6 7 6 4 6 6 6 6 6
5 -1 11 3 9 4 4 7 3 11 8 9 6 7 13 9 10 6 6 7 2 3 3 -0 3 7 5 8 14 4 5 7 3 4 6 8 7 6 6 5 4 7 7 7 6 5 5
-0 8 10 4 12 7 6 2 4 4 5 6 8 -1 11 16 9 11 10 10 5 4 1 7 -0 6 8 21 7 6 7 6 6 7 5 4 4 6 4 4 5 5 4 4 4 4 3
5 7 4 6 12 3 10 4 6 4 5 2 7 4 13 12 7 12 8 13 12 4 6 4 7 12 18 1 9 11 7 6 5 4 4 7 6 5 3 3 5 6 4 6 5 5 4
10 4 1 2 2 7 8 4 5 4 6 7 2 7 -1 8 11 9 8 9 7 5 6 6 11 13 1 12 6 8 4 6 7 7 6 6 5 5 4 2 5 5 5 6 6 4 5
5 1 4 9 10 3 3 6 5 1 5 8 9 3 6 4 8 12 10 9 5 7 -0 11 8 3 4 8 8 10 10 10 10 9 8 8 8 6 5 6 5 4 4 6 3 4 3
5 8 13 6 5 3 -1 7 0 5 -4 6 11 11 8 6 6 12 12 8 4 7 5 5 6 1 7 10 13 8 6 3 3 5 6 8 6 7 6 5 5 5 5 3 6 3 6
8 8 9 11 11 12 10 11 14 8 5 6 8 15 5 9 10 10 11 5 4 6 5 7 4 8 5 0 1 3 5 5 6 7 7 6 5 5 7 7 6 7 2 3 3 6 7
7 7 9 10 5 3 -1 5 15 4 16 19 7 0 1 2 8 14 11 9 6 9 7 6 5 6 5 4 1 3 1 6 5 6 3 4 7 8 7 8 7 4 6 8 4 8 6
6 3 6 8 13 8 14 11 11 12 18 9 9 10 7 5 6 9 11 9 6 10 7 5 5 6 3 1 3 -0 2 5 5 6 6 4 4 6 6 6 7 1 6 5 10 6 11
4 5 11 8 11 7 10 -0 9 -6 -6 10 6 9 10 12 8 7 13 9 7 10 6 5 6 5 3 3 0 1 1 2 4 7 4 2 2 6 5 8 5 8 4 9 9 12 12
13 10 9 11 9 10 12 -2 13 -1 -12 5 15 3 10 13 13 9 12 10 8 11 5 4 5 4 2 1 2 1 3 3 4 5 4 5 4 7 7 7 7 6 10 10 11 10 13
11 8 7 14 12 10 8 3 1 -10 11 5 8 8 13 19 18 6 14 9 4 13 8 5 4 5 4 2 2 2 4 3 3 6 5 5 4 6 7 7 7 9 11 10 12 11 15
13 13 19 5 0 12 9 11 9 15 4 6 14 1 -28 14 18 9 7 13 9 8 7 9 6 5 5 6 4 2 0 3 3 5 5 5 3 5 6 9 8 11 10 10 11 10 14
10 10 12 11 13 13 10 8 17 15 -1 11 6 -7 19 4 12 20 7 10 14 13 13 14 8 6 6 5 4 3 7 2 5 5 8 8 7 7 9 8 10 13 10 11 12 12 9
5 8 8 9 12 12 13 22 1 11 13 17 2 10 8 -15 6 27 4 6 9 7 10 9 12 6 3 4 3 5 6 2 6 7 7 9 9 12 8 9 10 12 9 12 16 9 11
6 4 3 6 6 10 19 21 -1 5 -24 7 1 23 20 11 -7 5 25 5 6 11 4 13 9 5 3 3 3 8 6 7 6 6 10 5 7 7 10 10 9 9 15 13 11 13 10
8 6 7 4 3 5 9 8 22 1 14 -4 6 14 3 -6 14 -2 26 6 6 10 11 13 11 8 4 4 5 9 6 6 7 10 14 10 11 9 8 11 5 11 10 12 10 12 8
9 8 9 9 7 8 4 6 10 15 11 -1 -22 6 0 11 3 -0 5 16 7 2 8 13 13 10 3 5 9 6 6 9 8 14 8 12 12 9 8 10 6 8 15 19 9 11 8
10 12 11 13 10 14 13 10 7 8 14 16 -7 6 4 9 7 22 15 14 7 11 9 9 11 7 6 5 7 6 8 8 15 9 14 15 8 10 8 7 8 15 18 12 9 6 8
14 14 12 15 17 14 14 11 12 6 10 7 16 14 2 7 1 12 15 8 10 11 7 5 6 5 4 9 6 4 11 7 8 8 14 13 8 9 15 7 9 16 21 12 5 8 3
11 12 12 15 16 15 12 13 11 9 9 10 18 3 14 4 11 16 8 9 8 3 -3 0 5 5 7 5 10 11 12 9 8 9 15 12 8 9 9 10 7 17 13 8 7 6 6
11 15 10 14 15 16 14 14 12 12 15 9 14 15 -1 0 14 14 7 6 10 7 4 8 8 13 9 13 10 11 8 8 15 11 11 14 10 14 13 10 12 10 15 13 11 8 4
8 12 11 12 14 18 16 17 12 9 8 10 16 6 2 20 6 4 16 12 10 9 8 7 15 12 1 11 13 11 11 12 13 10 11 10 12 12 13 18 13 12 13 11 11 8 9
Height
5801 5801 5800 5799 5798 5797 5796 5793 5791 5788 5785 5783 5781 5779 5778 5776 5775 5773 5772 5770 5769 5768 5767 5767 5766 5766 5766 5766 5765 5764 5764 5764 5764 5764 5765 5765 5765 5765 5766 5766 5766 5766 5767 5767 5767 5767 5767
5798 5797 5796 5795 5795 5794 5792 5791 5789 5786 5783 5781 5779 5777 5776 5773 5773 5771 5770 5769 5767 5765 5764 5763 5763 5763 5763 5763 5761 5760 5761 5760 5760 5760 5760 5760 5760 5760 5760 5760 5760 5760 5759 5759 5758 5758 5757
5794 5793 5793 5792 5791 5791 5789 5788 5786 5784 5782 5780 5777 5774 5772 5771 5769 5768 5768 5766 5764 5763 5762 5761 5760 5760 5759 5760 5758 5757 5757 5756 5756 5755 5756 5755 5755 5755 5754 5754 5753 5753 5752 5750 5749 5748 5747
5790 5789 5788 5788 5787 5787 5786 5785 5783 5781 5779 5778 5775 5774 5771 5768 5766 5765 5764 5763 5762 5760 5759 5757 5757 5756 5756 5755 5754 5753 5753 5753 5751 5750 5751 5750 5750 5749 5748 5747 5745 5744 5744 5742 5741 5738 5737
5786 5785 5784 5784 5783 5782 5782 5781 5779 5777 5776 5774 5772 5770 5768 5767 5765 5762 5760 5759 5758 5757 5756 5755 5754 5753 5752 5751 5750 5749 5747 5747 5747 5746 5746 5745 5744 5743 5741 5740 5739 5737 5736 5734 5732 5729 5727
5781 5781 5780 5779 5779 5778 5777 5777 5776 5774 5771 5769 5768 5767 5766 5763 5762 5759 5757 5756 5755 5754 5753 5752 5751 5751 5748 5747 5745 5744 5743 5742 5741 5740 5740 5739 5737 5736 5735 5733 5731 5728 5726 5724 5721 5719 5715
5775 5775 5775 5774 5774 5773 5773 5772 5771 5769 5767 5765 5763 5761 5759 5759 5757 5755 5753 5752 5752 5752 5750 5748 5747 5746 5743 5743 5740 5739 5738 5737 5736 5735 5734 5732 5731 5729 5726 5724 5722 5720 5717 5715 5711 5708 5705
5769 5769 5769 5768 5768 5767 5767 5766 5765 5764 5762 5760 5759 5757 5755 5753 5752 5751 5749 5746 5745 5746 5745 5744 5742 5740 5738 5737 5736 5734 5733 5732 5730 5728 5727 5726 5724 5722 5720 5717 5714 5711 5708 5704 5700 5695 5691
5762 5763 5763 5762 5761 5761 5760 5760 5759 5758 5756 5756 5754 5752 5750 5748 5746 5745 5743 5741 5739 5739 5740 5739 5737 5735 5733 5733 5731 5729 5727 5725 5723 5722 5720 5718 5716 5713 5711 5707 5704 5700 5695 5690 5687 5682 5677
5755 5755 5756 5755 5755 5754 5754 5754 5753 5753 5751 5750 5748 5747 5745 5744 5742 5739 5738 5735 5734 5733 5734 5736 5733 5730 5728 5726 5725 5723 5721 5720 5718 5715 5713 5710 5708 5705 5702 5698 5694 5689 5684 5679 5673 5668 5661
5747 5747 5748 5747 5747 5747 5747 5747 5746 5746 5745 5744 5743 5740 5740 5738 5736 5734 5732 5730 5728 5728 5726 5728 5727 5725 5723 5722 5719 5718 5715 5713 5710 5708 5707 5703 5698 5695 5691 5687 5683 5678 5672 5666 5659 5651 5644
5738 5739 5739 5740 5739 5739 5740 5740 5739 5738 5738 5737 5736 5734 5733 5733 5731 5729 5727 5725 5724 5724 5722 5721 5719 5718 5717 5714 5711 5709 5707 5706 5702 5699 5696 5693 5688 5684 5680 5676 5671 5664 5657 5651 5643 5635 5628
5730 5731 5731 5731 5731 5731 5732 5732 5731 5730 5729 5729 5728 5727 5726 5725 5724 5722 5720 5719 5718 5717 5716 5715 5712 5710 5709 5706 5704 5701 5699 5697 5694 5690 5686 5682 5679 5674 5670 5664 5658 5651 5643 5635 5628 5620 5612
5721 5722 5724 5723 5723 5724 5724 5724 5722 5721 5720 5720 5719 5719 5718 5717 5715 5713 5712 5712 5709 5710 5708 5706 5704 5702 5701 5699 5697 5693 5690 5687 5684 5680 5676 5672 5668 5663 5658 5651 5645 5638 5631 5623 5611 5606 5598
5713 5714 5715 5716 5716 5716 5716 5715 5714 5713 5714 5713 5710 5711 5709 5709 5707 5705 5705 5703 5702 5702 5700 5699 5697 5694 5693 5691 5688 5685 5682 5679 5675 5671 5667 5660 5656 5650 5644 5637 5631 5623 5615 5607 5597 5589 5581
5705 5705 5706 5706 5707 5707 5707 5708 5707 5706 5706 5705 5703 5702 5701 5699 5697 5696 5695 5694 5692 5691 5690 5689 5688 5685 5684 5682 5679 5676 5673 5669 5664 5660 5655 5649 5643 5638 5630 5623 5616 5609 5601 5591 5582 5570 5563
5697 5695 5696 5697 5698 5698 5699 5700 5698 5698 5699 5697 5695 5693 5693 5690 5689 5688 5686 5684 5684 5682 5681 5680 5678 5675 5674 5672 5669 5665 5663 5658 5653 5648 5643 5637 5631 5625 5617 5609 5600 5593 5585 5576 5568 5559 5547
5688 5687 5687 5687 5688 5689 5689 5690 5689 5689 5688 5689 5688 5684 5683 5681 5680 5678 5677 5675 5675 5673 5671 5669 5667 5666 5664 5661 5658 5654 5651 5647 5641 5636 5630 5624 5616 5610 5603 5594 5586 5579 5570 5563 5554 5547 5537
5679 5679 5678 5680 5679 5679 5680 5681 5680 5679 5679 5678 5677 5676 5674 5673 5670 5669 5667 5666 5664 5663 5660 5659 5657 5655 5653 5650 5646 5642 5639 5634 5629 5623 5617 5611 5603 5596 5588 5582 5574 5565 5557 5549 5542 5534 5528
5668 5670 5672 5671 5670 5669 5670 5671 5670 5671 5670 5669 5668 5665 5665 5663 5661 5659 5657 5656 5653 5652 5649 5648 5646 5644 5640 5637 5635 5630 5626 5621 5616 5609 5603 5596 5590 5583 5575 5567 5560 5552 5545 5537 5529 5522 5515
5659 5660 5660 5661 5661 5661 5661 5661 5662 5662 5661 5660 5658 5656 5656 5653 5652 5650 5647 5646 5643 5641 5639 5637 5635 5632 5629 5625 5622 5618 5612 5607 5601 5595 5588 5582 5576 5569 5560 5554 5545 5538 5534 5525 5517 5511 5504
5651 5651 5652 5652 5651 5651 5651 5651 5651 5652 5650 5650 5649 5645 5644 5644 5642 5640 5637 5636 5633 5629 5628 5626 5623 5619 5617 5613 5609 5604 5599 5592 5586 5580 5572 5567 5561 5554 5546 5540 5532 5525 5523 5513 5506 5501 5494
5640 5641 5641 5642 5642 5641 5641 5642 5640 5641 5641 5639 5639 5636 5634 5635 5632 5629 5627 5624 5622 5618 5616 5613 5610 5607 5604 5600 5595 5590 5585 5578 5572 5565 5557 5551 5544 5537 5530 5525 5516 5515 5512 5503 5494 5490 5483
5630 5630 5630 5631 5631 5630 5631 5631 5630 5629 5628 5628 5626 5625 5625 5624 5621 5618 5615 5613 5610 5607 5604 5601 5597 5594 5591 5586 5581 5576 5569 5563 5557 5549 5543 5536 5529 5521 5515 5510 5500 5503 5498 5490 5483 5479 5472
5619 5619 5620 5619 5620 5620 5619 5619 5619 5618 5617 5617 5615 5614 5613 5611 5610 5606 5603 5601 5598 5595 5591 5588 5585 5581 5577 5572 5567 5560 5555 5548 5542 5535 5528 5522 5514 5506 5499 5495 5489 5489 5483 5477 5469 5469 5461
5610 5609 5608 5608 5608 5607 5607 5606 5606 5605 5605 5603 5603 5602 5599 5600 5599 5595 5592 5589 5586 5582 5579 5575 5572 5567 5562 5557 5551 5545 5537 5532 5527 5521 5515 5508 5500 5493 5486 5478 5472 5476 5470 5464 5456 5455 5450
5601 5600 5598 5597 5597 5596 5595 5594 5593 5591 5591 5592 5592 5590 5587 5587 5586 5582 5580 5577 5574 5569 5566 5562 5558 5552 5547 5542 5536 5530 5525 5518 5511 5507 5502 5494 5486 5479 5470 5463 5461 5462 5455 5450 5444 5444 5438
5592 5590 5587 5586 5585 5584 5583 5581 5581 5580 5580 5579 5578 5577 5577 5575 5573 5570 5567 5564 5560 5556 5552 5549 5543 5537 5532 5526 5520 5516 5508 5503 5498 5492 5486 5479 5472 5468 5459 5451 5447 5447 5441 5438 5433 5427 5425
5582 5580 5577 5574 5573 5572 5571 5570 5569 5568 5568 5568 5567 5567 5565 5563 5562 5558 5555 5551 5546 5542 5538 5532 5529 5523 5517 5511 5506 5498 5494 5488 5483 5478 5472 5465 5461 5454 5449 5441 5435 5430 5425 5421 5419 5415 5412